When you browse on this site, cookies collect data to enhance your experience and personalize the content and advertising you see.
Visit our Privacy Policy to learn more. By continuing to use the site, you agree to this use of cookies and data.
  • In Österreich
  • Länderverzeichnis
  • Für 7 Tage
  • Wassertemperatur
  • Satellitenkarten
  • Wetterkarte
  • News
  • Widgets
  • user-avatar
    Anmelden

    Stündliche Wetter Kavunivka

    Heute, 16 Februar, Samstag

    Zeit Temperatur Niederschläge Wind Luftdruck Luftfeuchtigkeit
    00:00 -4°C° 0 mm 3 m/S 752 mmHg 94%
    01:00 -4°C° 0 mm 3 m/S 752 mmHg 95%
    02:00 -1°C° 0 mm 3 m/S 751 mmHg 96%
    03:00 -1°C° 0 mm 3 m/S 751 mmHg 96%
    04:00 -1°C° 0 mm 3 m/S 751 mmHg 96%
    05:00 -1°C° 0 mm 4 m/S 751 mmHg 96%
    06:00 -1°C° 0 mm 4 m/S 751 mmHg 96%
    07:00 -1°C° 0 mm 4 m/S 751 mmHg 96%
    08:00 -2°C° 0 mm 4 m/S 751 mmHg 96%
    09:00 -1°C° 0 mm 4 m/S 751 mmHg 97%
    10:00 -1°C° 0 mm 4 m/S 751 mmHg 98%
    11:00 -1°C° 0 mm 4 m/S 751 mmHg 99%
    12:00 -1°C° 0 mm 4 m/S 751 mmHg 99%
    13:00 -1°C° 0 mm 4 m/S 751 mmHg 99%
    14:00 0°C° 0 mm 4 m/S 751 mmHg 99%
    15:00 0°C° 0 mm 3 m/S 751 mmHg 99%
    16:00 0°C° 0 mm 3 m/S 751 mmHg 98%
    17:00 0°C° 0 mm 3 m/S 751 mmHg 97%
    18:00 0°C° 0 mm 3 m/S 751 mmHg 96%
    19:00 -1°C° 0 mm 3 m/S 751 mmHg 96%
    20:00 -1°C° 0 mm 3 m/S 751 mmHg 95%
    21:00 -1°C° 0 mm 3 m/S 750 mmHg 94%
    22:00 -1°C° 0 mm 3 m/S 750 mmHg 93%
    23:00 -1°C° 0 mm 3 m/S 750 mmHg 92%

    Morgen, 17 Februar, Sonntag

    Zeit Temperatur Niederschläge Wind Luftdruck Luftfeuchtigkeit
    00:00 -1°C° 0 mm 3 m/S 750 mmHg 91%
    01:00 -1°C° 0 mm 3 m/S 750 mmHg 91%
    02:00 -1°C° 0 mm 3 m/S 749 mmHg 91%
    03:00 -1°C° 0 mm 3 m/S 749 mmHg 90%
    04:00 -2°C° 0 mm 4 m/S 749 mmHg 90%
    05:00 -2°C° 0 mm 4 m/S 748 mmHg 89%
    06:00 -1°C° 0 mm 4 m/S 748 mmHg 89%
    07:00 -1°C° 0 mm 4 m/S 748 mmHg 88%
    08:00 -1°C° 0 mm 5 m/S 748 mmHg 88%
    09:00 0°C° 0 mm 5 m/S 747 mmHg 90%
    10:00 0°C° 0 mm 5 m/S 747 mmHg 91%
    11:00 +1°C° 0 mm 5 m/S 747 mmHg 93%
    12:00 +1°C° 0 mm 5 m/S 746 mmHg 90%
    13:00 +2°C° 0 mm 5 m/S 746 mmHg 87%
    14:00 +3°C° 0 mm 5 m/S 746 mmHg 84%
    15:00 +2°C° 0 mm 5 m/S 746 mmHg 83%
    16:00 +2°C° 0 mm 5 m/S 746 mmHg 83%
    17:00 +1°C° 0 mm 4 m/S 745 mmHg 83%
    18:00 +1°C° 0 mm 4 m/S 746 mmHg 83%
    19:00 0°C° 0 mm 4 m/S 746 mmHg 84%
    20:00 0°C° 0 mm 4 m/S 746 mmHg 85%
    21:00 0°C° 0 mm 4 m/S 746 mmHg 87%
    22:00 0°C° 0 mm 4 m/S 746 mmHg 89%
    23:00 0°C° 0 mm 4 m/S 747 mmHg 92%

    übermorgen, 18 Februar, Montag

    Zeit Temperatur Niederschläge Wind Luftdruck Luftfeuchtigkeit
    00:00 0°C° 0 mm 4 m/S 747 mmHg 92%
    01:00 0°C° 0 mm 4 m/S 747 mmHg 92%
    02:00 0°C° 0 mm 4 m/S 747 mmHg 92%
    03:00 -1°C° 0 mm 4 m/S 747 mmHg 93%
    04:00 -1°C° 0 mm 4 m/S 747 mmHg 94%
    05:00 -1°C° 0 mm 4 m/S 747 mmHg 94%
    06:00 -1°C° 0 mm 4 m/S 747 mmHg 95%
    07:00 0°C° 0 mm 3 m/S 748 mmHg 95%
    08:00 -1°C° 0 mm 3 m/S 748 mmHg 96%
    09:00 -1°C° 0 mm 4 m/S 748 mmHg 91%
    10:00 -1°C° 0 mm 4 m/S 749 mmHg 86%
    11:00 0°C° 0 mm 4 m/S 749 mmHg 81%
    12:00 0°C° 0 mm 4 m/S 749 mmHg 77%
    13:00 0°C° 0 mm 4 m/S 749 mmHg 73%
    14:00 +1°C° 0 mm 4 m/S 749 mmHg 70%
    15:00 +1°C° 0 mm 3 m/S 750 mmHg 73%
    16:00 0°C° 0 mm 3 m/S 750 mmHg 75%
    17:00 -1°C° 0 mm 3 m/S 750 mmHg 78%
    18:00 -2°C° 0 mm 3 m/S 750 mmHg 81%
    19:00 -2°C° 0 mm 3 m/S 750 mmHg 84%
    20:00 -4°C° 0 mm 3 m/S 751 mmHg 87%
    21:00 -3°C° 0 mm 2 m/S 751 mmHg 87%
    22:00 -3°C° 0 mm 2 m/S 752 mmHg 88%
    23:00 -3°C° 0 mm 2 m/S 752 mmHg 88%

    19 Februar, Dienstag

    Zeit Temperatur Niederschläge Wind Luftdruck Luftfeuchtigkeit
    00:00 -3°C° 0 mm 2 m/S 752 mmHg 88%
    01:00 -4°C° 0 mm 2 m/S 752 mmHg 89%
    02:00 -2°C° 0 mm 1 m/S 752 mmHg 89%
    03:00 -2°C° 0 mm 1 m/S 752 mmHg 88%
    04:00 -2°C° 0 mm 1 m/S 752 mmHg 88%
    05:00 -2°C° 0 mm 1 m/S 752 mmHg 87%
    06:00 -2°C° 0 mm 1 m/S 753 mmHg 86%
    07:00 -2°C° 0 mm 1 m/S 753 mmHg 84%
    08:00 -2°C° 0 mm 1 m/S 753 mmHg 82%
    09:00 -3°C° 0 mm 2 m/S 753 mmHg 75%
    10:00 -2°C° 0 mm 2 m/S 753 mmHg 68%
    11:00 -1°C° 0 mm 2 m/S 753 mmHg 61%
    12:00 -1°C° 0 mm 2 m/S 753 mmHg 60%
    13:00 0°C° 0 mm 3 m/S 753 mmHg 58%
    14:00 0°C° 0 mm 3 m/S 752 mmHg 56%
    15:00 0°C° 0 mm 3 m/S 752 mmHg 60%
    16:00 -1°C° 0 mm 3 m/S 752 mmHg 63%
    17:00 -1°C° 0 mm 2 m/S 751 mmHg 67%
    18:00 -2°C° 0 mm 3 m/S 751 mmHg 67%
    19:00 -2°C° 0 mm 3 m/S 751 mmHg 67%
    20:00 -2°C° 0 mm 3 m/S 751 mmHg 67%
    21:00 -3°C° 0 mm 4 m/S 750 mmHg 67%
    22:00 -3°C° 0 mm 4 m/S 750 mmHg 66%
    23:00 -3°C° 0 mm 4 m/S 750 mmHg 66%

    20 Februar, Mittwoch

    Zeit Temperatur Niederschläge Wind Luftdruck Luftfeuchtigkeit
    00:00 -3°C° 0 mm 4 m/S 749 mmHg 66%
    01:00 -4°C° 0 mm 5 m/S 749 mmHg 67%
    02:00 -4°C° 0 mm 5 m/S 749 mmHg 67%
    03:00 -4°C° 0 mm 5 m/S 748 mmHg 72%
    04:00 -4°C° 0 mm 5 m/S 748 mmHg 76%
    05:00 -4°C° 0 mm 5 m/S 748 mmHg 80%
    06:00 -4°C° 0 mm 5 m/S 747 mmHg 82%
    07:00 -2°C° 0 mm 5 m/S 747 mmHg 84%
    08:00 -2°C° 0 mm 5 m/S 747 mmHg 86%
    09:00 -1°C° 0 mm 5 m/S 747 mmHg 86%
    10:00 0°C° 0 mm 5 m/S 747 mmHg 85%
    11:00 +1°C° 0 mm 5 m/S 747 mmHg 84%
    12:00 +2°C° 0 mm 5 m/S 747 mmHg 83%
    13:00 +2°C° 0 mm 5 m/S 746 mmHg 81%
    14:00 +3°C° 0 mm 5 m/S 746 mmHg 80%
    15:00 +3°C° 0 mm 4 m/S 746 mmHg 83%
    16:00 +3°C° 0 mm 4 m/S 746 mmHg 86%
    17:00 +2°C° 0 mm 3 m/S 746 mmHg 89%
    18:00 +2°C° 0 mm 3 m/S 746 mmHg 89%
    19:00 +1°C° 0 mm 3 m/S 746 mmHg 90%
    20:00 +1°C° 0 mm 3 m/S 746 mmHg 90%
    21:00 +1°C° 0 mm 3 m/S 746 mmHg 89%
    22:00 0°C° 0 mm 4 m/S 746 mmHg 88%
    23:00 0°C° 0 mm 4 m/S 746 mmHg 86%

    21 Februar, Donnerstag

    Zeit Temperatur Niederschläge Wind Luftdruck Luftfeuchtigkeit
    00:00 0°C° 0 mm 4 m/S 746 mmHg 86%
    01:00 0°C° 0 mm 5 m/S 746 mmHg 86%
    02:00 0°C° 0 mm 5 m/S 746 mmHg 86%
    03:00 0°C° 0 mm 5 m/S 746 mmHg 87%
    04:00 0°C° 0 mm 4 m/S 746 mmHg 88%
    05:00 -1°C° 0 mm 4 m/S 745 mmHg 88%
    06:00 -1°C° 0 mm 4 m/S 746 mmHg 88%
    07:00 -1°C° 0 mm 4 m/S 746 mmHg 89%
    08:00 -1°C° 0 mm 4 m/S 746 mmHg 89%
    09:00 0°C° 0 mm 4 m/S 746 mmHg 86%
    10:00 +1°C° 0 mm 4 m/S 746 mmHg 84%
    11:00 +2°C° 0 mm 5 m/S 746 mmHg 82%
    12:00 +3°C° 0 mm 5 m/S 745 mmHg 80%
    13:00 +5°C° 0 mm 5 m/S 745 mmHg 78%
    14:00 +5°C° 0 mm 5 m/S 745 mmHg 76%
    15:00 +5°C° 0 mm 5 m/S 744 mmHg 77%
    16:00 +5°C° 0 mm 5 m/S 744 mmHg 79%
    17:00 +4°C° 0 mm 4 m/S 744 mmHg 80%
    18:00 +4°C° 0.1 mm 4 m/S 744 mmHg 83%
    19:00 +4°C° 0.1 mm 4 m/S 744 mmHg 86%
    20:00 +3°C° 0.1 mm 5 m/S 744 mmHg 89%
    21:00 +3°C° 0.1 mm 4 m/S 744 mmHg 90%
    22:00 +3°C° 0.1 mm 4 m/S 744 mmHg 91%
    23:00 +3°C° 0.1 mm 4 m/S 744 mmHg 92%
    Mehr zeigen